FW9532 Weather Reports


time (UTC)temp
C
wind
direction
speed
KPH
gust
KPH
rain 1hr
cm
rain 24hr
cm
rain mn
cm
humidity
%
barometer
mb
20260506070533 13 53 11.3 19.3 0.00 0.00 0.00 78 1010.1
20260506062030 13 2 11.3 20.9 0.00 0.00 0.00 79 1010.4
20260506061546 13 16 8.0 19.3 0.00 0.00 0.00 79 1010.3
20260506061030 13 317 8.0 22.5 0.00 0.00 0.00 79 1010.3
20260506060535 13 6 9.7 22.5 0.00 0.00 0.00 79 1010.3
20260506051036 14 351 12.9 22.5 0.00 0.00 0.00 80 1010.3
20260506050535 14 61 11.3 27.4 0.00 0.00 0.00 80 1010.2
20260506045035 15 37 14.5 24.1 0.00 0.00 0.00 80 1010.1
20260506044544 15 53 11.3 25.7 0.00 0.00 0.00 81 1010.2
20260506044035 15 317 9.7 25.7 0.00 0.00 0.00 81 1010.1
20260506043540 15 49 16.1 25.7 0.00 0.00 0.00 81 1009.8
20260506043041 15 27 12.9 25.7 0.00 0.00 0.00 81 1010.0
20260506042535 15 37 14.5 25.7 0.00 0.00 0.00 81 1009.9
20260506042038 15 67 11.3 19.3 0.00 0.00 0.00 81 1010.0
20260506041553 16 24 9.7 22.5 0.00 0.00 0.00 81 1009.8
20260506041035 16 14 8.0 24.1 0.00 0.00 0.00 81 1009.8
20260506040535 16 52 11.3 24.1 0.00 0.00 0.00 81 1009.7
20260506040052 16 282 8.0 20.9 0.00 0.00 0.00 81 1009.7
20260506035538 16 359 4.8 16.1 0.00 0.00 0.00 81 1009.5
20260506035038 16 345 6.4 25.7 0.00 0.00 0.00 81 1009.5
20260506034547 16 330 9.7 25.7 0.00 0.00 0.00 81 1009.7
20260506034036 16 33 8.0 20.9 0.00 0.00 0.00 81 1009.7
20260506033537 16 348 11.3 20.9 0.00 0.00 0.00 81 1009.6
20260506033044 16 10 9.7 20.9 0.00 0.00 0.00 81 1009.6
20260506032535 16 6 8.0 20.9 0.00 0.00 0.00 81 1009.4
20260506032035 16 23 9.7 20.9 0.00 0.00 0.00 81 1009.5
20260506031547 17 37 6.4 20.9 0.00 0.00 0.00 80 1009.4
20260506031035 17 26 12.9 20.9 0.00 0.00 0.00 80 1009.2
20260506030536 17 1 8.0 19.3 0.00 0.00 0.00 80 1009.2
20260506030048 17 347 12.9 19.3 0.00 0.00 0.00 80 1009.1
20260506025535 17 40 9.7 22.5 0.00 0.00 0.00 80 1009.0
20260506025035 17 30 11.3 22.5 0.00 0.00 0.00 80 1008.9
20260506024541 17 316 9.7 19.3 0.00 0.00 0.00 80 1008.7
20260506024035 18 342 11.3 19.3 0.00 0.00 0.00 79 1008.6
20260506023536 18 44 6.4 19.3 0.00 0.00 0.00 79 1008.2
20260506023044 18 13 6.4 20.9 0.00 0.00 0.00 80 1007.9
20260506022535 18 11 9.7 20.9 0.00 0.00 0.00 79 1007.8
20260506022035 19 21 11.3 20.9 0.00 0.00 0.00 79 1007.8
20260506021554 19 31 11.3 19.3 0.00 0.00 0.00 79 1007.5
20260506021034 19 32 11.3 22.5 0.00 0.00 0.00 78 1007.5
20260506020534 19 27 11.3 22.5 0.00 0.00 0.00 79 1007.7
20260506020047 20 323 9.7 24.1 0.00 0.00 0.00 78 1007.5
20260506015535 20 34 11.3 24.1 0.00 0.00 0.00 78 1007.3
20260506015037 20 323 9.7 24.1 0.00 0.00 0.00 78 1007.2
20260506014551 20 329 11.3 19.3 0.00 0.00 0.00 77 1007.1
20260506014034 20 37 8.0 22.5 0.00 0.00 0.00 77 1007.2
20260506013534 20 15 9.7 22.5 0.00 0.00 0.00 77 1007.3
20260506013047 20 24 9.7 22.5 0.00 0.00 0.00 76 1006.8
20260506012534 20 328 11.3 22.5 0.00 0.00 0.00 77 1006.9
20260506012035 21 30 9.7 19.3 0.00 0.00 0.00 76 1006.6
20260506011544 21 330 4.8 17.7 0.00 0.00 0.00 76 1006.8
20260506011033 21 344 6.4 17.7 0.00 0.00 0.00 76 1007.1
20260506010537 21 324 9.7 19.3 0.00 0.00 0.00 76 1006.0
20260506010049 22 25 8.0 19.3 0.00 0.00 0.00 76 1006.1
20260506005537 22 337 4.8 12.9 0.00 0.00 0.00 76 1006.2
20260506005034 22 46 6.4 11.3 0.00 0.00 0.00 75 1006.2
20260506004549 22 331 4.8 12.9 0.00 0.00 0.00 74 1005.9
20260506004034 22 16 3.2 20.9 0.00 0.00 0.00 73 1006.1
20260506003535 22 307 8.0 20.9 0.00 0.00 0.00 73 1006.2
20260506003038 22 311 6.4 17.7 0.00 0.00 0.00 73 1006.1
20260506002535 22 338 3.2 12.9 0.00 0.00 0.00 72 1006.1
20260506002034 22 316 6.4 14.5 0.00 0.00 0.00 72 1006.1
20260506001605 23 335 6.4 22.5 0.00 0.00 0.00 71 1005.9
20260506001035 23 312 8.0 22.5 0.00 0.00 0.00 71 1006.0
20260506000537 23 328 8.0 22.5 0.00 0.00 0.00 70 1005.9
20260506000050 23 307 6.4 16.1 0.00 0.00 0.00 71 1005.9
20260505235535 23 332 6.4 14.5 0.00 0.00 0.00 71 1005.9
20260505235035 23 311 6.4 17.7 0.00 0.00 0.00 71 1005.6
20260505234552 24 316 9.7 24.1 0.00 0.00 0.00 70 1005.4
20260505234037 24 32 8.0 24.1 0.00 0.00 0.00 69 1005.2
20260505233534 24 321 11.3 24.1 0.00 0.00 0.00 69 1005.3
20260505233053 25 314 12.9 24.1 0.00 0.00 0.00 67 1005.3
20260505232534 26 311 9.7 24.1 0.00 0.00 0.00 65 1005.4
20260505232035 26 288 6.4 22.5 0.00 0.00 0.00 65 1005.3
20260505231551 26 354 9.7 22.5 0.00 0.00 0.00 64 1005.1
20260505231038 26 301 9.7 22.5 0.00 0.00 0.00 63 1005.1
20260505230536 27 356 9.7 20.9 0.00 0.00 0.00 62 1004.9
20260505230045 27 328 9.7 19.3 0.00 0.00 0.00 59 1004.8
20260505225537 28 264 9.7 19.3 0.00 0.00 0.00 58 1004.5
20260505225035 28 287 8.0 17.7 0.00 0.00 0.00 56 1004.6
20260505224544 28 293 6.4 17.7 0.00 0.00 0.00 55 1004.7
20260505224034 28 11 8.0 20.9 0.00 0.00 0.00 55 1004.7
20260505223534 28 309 9.7 20.9 0.00 0.00 0.00 54 1004.5
20260505223055 28 306 8.0 17.7 0.00 0.00 0.00 53 1004.4
20260505222534 29 297 8.0 17.7 0.00 0.00 0.00 52 1004.4
20260505222034 30 296 8.0 20.9 0.00 0.00 0.00 52 1004.2
20260505221552 30 326 8.0 20.9 0.00 0.00 0.00 51 1004.0
20260505221036 30 286 8.0 19.3 0.00 0.00 0.00 52 1004.0
20260505220537 30 298 9.7 19.3 0.00 0.00 0.00 53 1004.1
20260505220047 30 244 8.0 22.5 0.00 0.00 0.00 58 1003.9
20260505215535 30 259 11.3 22.5 0.00 0.00 0.00 57 1003.9
20260505215035 31 243 8.0 22.5 0.00 0.00 0.00 57 1003.9
20260505214557 31 243 9.7 22.5 0.00 0.00 0.00 56 1004.2
20260505214034 31 225 9.7 24.1 0.00 0.00 0.00 57 1004.2
20260505213535 31 283 12.9 24.1 0.00 0.00 0.00 58 1004.1
20260505213057 31 248 14.5 24.1 0.00 0.00 0.00 57 1004.2
20260505212534 31 235 9.7 24.1 0.00 0.00 0.00 58 1004.2
20260505212035 30 239 16.1 25.7 0.00 0.00 0.00 58 1004.2
20260505211545 30 251 9.7 25.7 0.00 0.00 0.00 58 1004.3
20260505211036 30 250 14.5 29.0 0.00 0.00 0.00 58 1004.4
20260505210536 30 230 16.1 29.0 0.00 0.00 0.00 58 1004.5
20260505210049 30 242 14.5 27.4 0.00 0.00 0.00 59 1004.5
20260505205535 30 237 12.9 24.1 0.00 0.00 0.00 59 1004.3
20260505205035 30 237 11.3 19.3 0.00 0.00 0.00 59 1004.5
20260505204544 30 244 9.7 17.7 0.00 0.00 0.00 60 1004.6
20260505204035 30 231 11.3 22.5 0.00 0.00 0.00 60 1004.6
20260505203535 30 284 9.7 22.5 0.00 0.00 0.00 60 1004.6
20260505203046 30 250 9.7 19.3 0.00 0.00 0.00 60 1004.7
20260505202535 30 262 11.3 25.7 0.00 0.00 0.00 59 1004.8
20260505202038 30 233 14.5 25.7 0.00 0.00 0.00 59 1004.9
20260505201552 30 251 11.3 25.7 0.00 0.00 0.00 60 1004.9
20260505201035 30 234 11.3 20.9 0.00 0.00 0.00 61 1004.8
20260505200535 30 256 12.9 27.4 0.00 0.00 0.00 61 1004.7
20260505200040 29 240 12.9 29.0 0.00 0.00 0.00 61 1004.8
20260505195534 30 262 19.3 29.0 0.00 0.00 0.00 60 1004.9
20260505195035 30 276 16.1 27.4 0.00 0.00 0.00 59 1004.8
20260505194543 30 247 14.5 29.0 0.00 0.00 0.00 58 1004.9
20260505194036 30 241 17.7 29.0 0.00 0.00 0.00 60 1004.9
20260505193535 30 196 11.3 24.1 0.00 0.00 0.00 59 1004.8
20260505193049 30 252 11.3 25.7 0.00 0.00 0.00 63 1004.7
20260505192537 29 277 16.1 25.7 0.00 0.00 0.00 60 1004.7
20260505192035 29 231 12.9 25.7 0.00 0.00 0.00 62 1004.9
20260505191552 29 233 9.7 25.7 0.00 0.00 0.00 63 1004.8
20260505191035 29 231 11.3 22.5 0.00 0.00 0.00 64 1004.7
20260505190535 29 260 8.0 25.7 0.00 0.00 0.00 65 1004.6
20260505190055 29 274 9.7 25.7 0.00 0.00 0.00 66 1004.7
20260505185536 29 150 12.9 25.7 0.00 0.00 0.00 66 1004.7
20260505185035 28 242 12.9 27.4 0.00 0.00 0.00 66 1004.8
20260505184552 28 243 11.3 27.4 0.00 0.00 0.00 67 1004.8
20260505184036 28 237 8.0 22.5 0.00 0.00 0.00 67 1004.8
20260505183539 28 229 8.0 22.5 0.00 0.00 0.00 69 1004.9
20260505183048 28 166 11.3 22.5 0.00 0.00 0.00 69 1004.8
20260505182536 28 202 9.7 22.5 0.00 0.00 0.00 69 1004.9
20260505182034 27 220 9.7 22.5 0.00 0.00 0.00 69 1005.1
20260505181540 27 249 9.7 30.6 0.00 0.00 0.00 70 1005.2
20260505181039 27 238 16.1 30.6 0.00 0.00 0.00 69 1005.1
20260505180538 28 163 14.5 29.0 0.00 0.00 0.00 69 1005.1
20260505180050 28 313 12.9 29.0 0.00 0.00 0.00 70 1004.9
20260505175535 27 146 12.9 30.6 0.00 0.00 0.00 70 1005.0
20260505175035 27 237 12.9 37.0 0.00 0.00 0.00 71 1004.9
20260505174542 27 244 19.3 37.0 0.00 0.00 0.00 70 1004.9
20260505174035 27 188 12.9 33.8 0.00 0.00 0.00 71 1005.0
20260505173534 27 235 17.7 33.8 0.00 0.00 0.00 71 1005.0
20260505173044 27 233 11.3 30.6 0.00 0.00 0.00 72 1005.0
20260505172534 26 243 12.9 27.4 0.00 0.00 0.00 74 1005.0
20260505172033 26 212 11.3 25.7 0.00 0.00 0.00 74 1004.9
20260505171548 26 215 14.5 25.7 0.00 0.00 0.00 74 1005.2
20260505171033 25 243 11.3 29.0 0.00 0.00 0.00 75 1004.7
20260505170530 25 248 16.1 29.0 0.00 0.00 0.00 75 1005.4
20260505170049 25 237 12.9 32.2 0.00 0.00 0.00 74 1005.1
20260505165530 25 238 14.5 32.2 0.00 0.00 0.00 75 1005.1
20260505165034 25 264 14.5 27.4 0.00 0.00 0.00 75 1005.1
20260505164543 25 219 12.9 29.0 0.00 0.00 0.00 76 1004.9
20260505164032 25 257 16.1 29.0 0.00 0.00 0.00 75 1005.4
20260505163533 25 266 11.3 27.4 0.00 0.00 0.00 75 1004.6
20260505163041 25 231 11.3 32.2 0.00 0.00 0.00 76 1005.0
20260505162530 25 224 16.1 33.8 0.00 0.00 0.00 75 1005.5
20260505162033 25 232 19.3 33.8 0.00 0.00 0.00 75 1005.5
20260505161541 25 233 14.5 35.4 0.00 0.00 0.00 75 1004.9
20260505161034 25 239 19.3 37.0 0.00 0.00 0.00 75 1005.1
20260505160536 25 227 19.3 37.0 0.00 0.00 0.00 75 1005.1
20260505153052 24 255 14.5 32.2 0.00 0.00 0.00 77 1004.7
20260505152532 24 236 16.1 40.2 0.00 0.00 0.00 77 1004.7
20260505152033 24 236 17.7 40.2 0.00 0.00 0.00 78 1005.0
20260505151543 24 231 17.7 40.2 0.00 0.00 0.00 77 1005.0
20260505151033 24 223 9.7 30.6 0.00 0.00 0.00 78 1005.0
20260505150532 24 231 14.5 32.2 0.00 0.00 0.00 78 1005.0
20260505140535 23 246 9.7 24.1 0.00 0.00 0.00 82 1004.6
20260505125035 22 240 8.0 19.3 0.00 0.00 0.00 84 1004.5
20260505124605 22 298 8.0 19.3 0.00 0.00 0.00 85 1004.5
20260505124034 22 223 6.4 29.0 0.00 0.00 0.00 85 1004.4
20260505123534 21 207 9.7 29.0 0.00 0.00 0.00 85 1004.3
20260505123110 21 238 12.9 29.0 0.00 0.00 0.00 85 1004.4
20260505122534 21 225 4.8 16.1 0.00 0.00 0.00 86 1004.3
20260505122036 21 151 6.4 16.1 0.00 0.00 0.00 86 1004.3
20260505121549 21 169 6.4 16.1 0.00 0.00 0.00 86 1004.3
20260505121038 21 191 6.4 16.1 0.00 0.00 0.00 87 1004.3
20260505120535 21 155 4.8 16.1 0.00 0.00 0.00 87 1004.3
20260505120052 21 161 4.8 16.1 0.00 0.00 0.00 87 1004.1
20260505115535 21 160 4.8 14.5 0.00 0.00 0.00 87 1004.2
20260505115034 21 205 6.4 14.5 0.00 0.00 0.00 87 1004.1
20260505114553 21 192 8.0 17.7 0.00 0.00 0.00 87 1004.1
20260505114035 21 263 6.4 19.3 0.00 0.00 0.00 86 1003.9
20260505113535 21 254 8.0 19.3 0.00 0.00 0.00 86 1004.0
20260505113044 21 167 8.0 19.3 0.00 0.00 0.00 86 1004.0
20260505112535 21 214 8.0 17.7 0.00 0.00 0.00 86 1004.0
20260505112035 21 189 6.4 17.7 0.00 0.00 0.00 86 1003.9
20260505111557 21 214 8.0 20.9 0.00 0.00 0.00 86 1004.0
20260505111035 21 147 4.8 22.5 0.00 0.00 0.00 85 1003.8
20260505110535 21 216 8.0 22.5 0.00 0.00 0.00 85 1003.8
20260505102035 21 140 8.0 20.9 0.00 0.00 0.00 86 1003.9
20260505101546 21 205 9.7 20.9 0.00 0.00 0.00 86 1004.0
20260505101035 21 226 6.4 22.5 0.00 0.00 0.00 86 1004.0
20260505100536 21 214 6.4 25.7 0.00 0.00 0.00 86 1003.9
20260505100044 21 211 9.7 25.7 0.00 0.00 0.00 86 1003.9
20260505095534 21 181 11.3 25.7 0.00 0.00 0.00 86 1003.9
20260505095034 21 240 9.7 25.7 0.00 0.00 0.00 86 1004.0
20260505094550 21 184 8.0 22.5 0.00 0.00 0.00 86 1004.0
20260505094035 21 187 9.7 22.5 0.00 0.00 0.00 86 1004.0
20260505093535 21 233 9.7 29.0 0.00 0.00 0.00 86 1004.1
20260505093049 21 217 9.7 29.0 0.00 0.00 0.00 86 1004.3
20260505092535 21 231 9.7 17.7 0.00 0.00 0.00 86 1004.3
20260505092036 21 243 8.0 16.1 0.00 0.00 0.00 86 1004.3
20260505091548 21 175 8.0 22.5 0.00 0.00 0.00 86 1004.4
20260505091035 21 195 9.7 27.4 0.00 0.00 0.00 86 1004.4
20260505090535 21 143 9.7 27.4 0.00 0.00 0.00 86 1004.3
20260505090105 21 226 9.7 19.3 0.00 0.00 0.00 86 1004.4
20260505085535 21 212 11.3 19.3 0.00 0.00 0.00 86 1004.4
20260505085035 21 165 6.4 17.7 0.00 0.00 0.00 86 1004.3
20260505084541 21 177 8.0 25.7 0.00 0.00 0.00 86 1004.3
20260505084034 21 219 9.7 25.7 0.00 0.00 0.00 86 1004.4
20260505083536 21 214 8.0 20.9 0.00 0.00 0.00 85 1004.5
20260505083043 21 206 9.7 20.9 0.00 0.00 0.00 85 1004.4
20260505082535 21 149 8.0 20.9 0.00 0.00 0.00 85 1004.3
20260505082036 21 240 4.8 22.5 0.00 0.00 0.00 85 1004.4
20260505081550 21 165 8.0 22.5 0.00 0.00 0.00 84 1004.4
20260505081036 21 158 11.3 24.1 0.00 0.00 0.00 84 1004.5
20260505080535 21 152 9.7 24.1 0.00 0.00 0.00 84 1004.5
20260505080055 21 252 9.7 24.1 0.00 0.00 0.00 84 1004.5
20260505075533 21 197 8.0 24.1 0.00 0.00 0.00 83 1004.6
20260505075034 21 160 6.4 25.7 0.00 0.00 0.00 83 1004.6
20260505074546 21 158 12.9 25.7 0.00 0.00 0.00 83 1004.7
20260505074036 21 227 8.0 24.1 0.00 0.00 0.00 83 1004.8
20260505073532 21 204 8.0 20.9 0.00 0.00 0.00 82 1004.8
20260505073054 21 200 6.4 25.7 0.00 0.00 0.00 82 1004.9
20260505072535 22 153 8.0 25.7 0.00 0.00 0.00 82 1005.1
20260505072030 22 251 9.7 24.1 0.00 0.00 0.00 81 1005.1
20260505071545 22 173 8.0 24.1 0.00 0.00 0.00 81 1005.0
20260505071034 22 146 9.7 25.7 0.00 0.00 0.00 81 1005.1